GW6438 Weather Reports


time (UTC)temp
C
wind
direction
speed
KPH
gust
KPH
rain 1hr
cm
rain 24hr
cm
rain mn
cm
humidity
%
barometer
mb
20260504201559 20 63 1.6 11.3 0.00 0.00 0.00 54 1006.6
20260504200044 19 274 0.0 4.8 0.00 0.00 0.00 61 1006.6
20260504194547 18 258 3.2 6.4 0.00 0.00 0.00 66 1006.7
20260504193039 18 220 0.0 0.0 0.00 0.00 0.00 65 1006.7
20260504191543 19 296 1.6 6.4 0.00 0.00 0.00 61 1006.7
20260504190037 18 296 1.6 4.8 0.00 0.00 0.00 61 1006.9
20260504184545 19 217 0.0 6.4 0.00 0.00 0.00 62 1006.9
20260504183033 18 286 0.0 0.0 0.00 0.00 0.00 63 1007.0
20260504181537 18 285 0.0 0.0 0.00 0.00 0.00 67 1007.0
20260504180033 18 286 0.0 1.6 0.00 0.00 0.00 67 1007.0
20260504174537 18 286 0.0 4.8 0.00 0.00 0.00 68 1007.0
20260504173033 18 200 1.6 4.8 0.00 0.00 0.00 62 1007.0
20260504171534 19 201 4.8 6.4 0.00 0.00 0.00 61 1007.0
20260504120121 15 175 4.8 11.3 0.00 0.00 0.00 67 1006.1
20260504110106 15 224 0.0 8.0 0.00 0.00 0.00 66 1006.1
20260504081538 14 27 0.0 0.0 0.00 0.00 0.00 76 1005.8
20260504050022 15 293 0.0 4.8 0.00 0.00 0.00 70 1005.9
20260504044525 15 188 0.0 0.0 0.00 0.00 0.00 67 1005.9
20260504043024 15 188 0.0 0.0 0.00 0.00 0.00 70 1006.0
20260504041524 15 189 0.0 6.4 0.00 0.00 0.00 69 1006.0
20260504040023 15 329 0.0 8.0 0.00 0.00 0.00 72 1005.9
20260504034531 15 210 1.6 4.8 0.00 0.00 0.00 72 1005.9
20260504033034 16 359 0.0 3.2 0.00 0.00 0.00 68 1005.8
20260504031523 17 359 1.6 4.8 0.00 0.00 0.00 65 1005.8
20260504030019 19 295 0.0 3.2 0.00 0.00 0.00 55 1005.8
20260504024539 20 299 0.0 0.0 0.00 0.00 0.00 55 1005.7
20260504023018 20 298 0.0 3.2 0.00 0.00 0.00 54 1005.7
20260504021516 20 3 1.6 11.3 0.00 0.00 0.00 56 1006.0
20260504020016 20 212 1.6 11.3 0.00 0.00 0.00 54 1006.0
20260504014515 20 21 6.4 11.3 0.00 0.00 0.00 51 1006.1
20260504013015 21 214 1.6 4.8 0.00 0.00 0.00 53 1006.2
20260504011509 22 18 0.0 0.0 0.00 0.00 0.00 49 1006.4
20260504010007 21 20 3.2 8.0 0.00 0.00 0.00 47 1006.5
20260504004508 21 356 0.0 4.8 0.00 0.00 0.00 49 1006.7
20260504003103 21 353 3.2 8.0 0.00 0.00 0.00 53 1006.8
20260504001604 20 307 0.0 6.4 0.00 0.00 0.00 53 1007.0
20260504000055 22 342 0.0 0.0 0.00 0.00 0.00 49 1007.1
20260503234549 22 9 0.0 3.2 0.00 0.00 0.00 45 1007.3
20260503233044 23 21 1.6 4.8 0.00 0.00 0.00 45 1007.5
20260503231549 22 209 0.0 4.8 0.00 0.00 0.00 50 1007.6
20260503230041 21 353 4.8 9.7 0.00 0.00 0.00 49 1007.9
20260503224534 20 277 0.0 0.0 0.00 0.00 0.00 56 1008.1
20260503223030 20 269 0.0 3.2 0.00 0.00 0.00 55 1008.3
20260503221528 21 325 0.0 0.0 0.00 0.00 0.00 51 1008.5
20260503220030 21 247 0.0 0.0 0.00 0.00 0.00 50 1008.6
20260503214525 21 247 0.0 9.7 0.00 0.00 0.00 49 1008.9
20260503213028 22 12 8.0 11.3 0.00 0.00 0.00 45 1009.0
20260503211534 22 12 4.8 8.0 0.00 0.00 0.00 46 1009.1
20260503210020 22 7 6.4 12.9 0.00 0.00 0.00 45 1009.3
20260503204518 22 12 8.0 14.5 0.00 0.00 0.00 47 1009.6
20260503203014 22 32 6.4 14.5 0.00 0.00 0.00 49 1009.8